ITY715 OMAA-LIRF

Flight info

Callsign ITY715
Flight time N/A
Altitude 36000
Route BOSEV N563 IMGUX P699 SOGAT A453 BHR B457 NARMI J735 TAYMA N697 LABLI/N0490F380 N697 BPN H999 HIL N697 KITOT L550 NOVPA N697 MENLI L677 CVO L617 NABSI M872 METRU UL81 TETUZ/N0480F400 UL81 LORNO DCT KOGEB DCT POLIT DCT LAT
Aircraft A359/H-SDE1E2E3FGHIJ2J3J4J5M1RWXY/LB1D1

Departure

Time N/A
Airport Zayed International Airport (OMAA)

Arrival

Time 2026-05-05 13:59
Airport Rome–Fiumicino Leonardo da Vinci International Airport (LIRF)
Time Latitude Longitude Altitude Speed Heading
2026-05-05 13:12 39.35622 15.93762 40213 ft 444 kts 311°
2026-05-05 13:12 39.37742 15.90851 40212 ft 445 kts 311°
2026-05-05 13:13 39.41981 15.85025 40207 ft 445 kts 311°
2026-05-05 13:13 39.46200 15.79216 40202 ft 445 kts 311°
2026-05-05 13:14 39.50442 15.73363 40197 ft 445 kts 311°
2026-05-05 13:14 39.54687 15.67494 40191 ft 445 kts 311°
2026-05-05 13:15 39.58924 15.61627 40188 ft 445 kts 311°
2026-05-05 13:15 39.63156 15.55753 40182 ft 445 kts 311°
2026-05-05 13:16 39.67388 15.49869 40175 ft 446 kts 310°
2026-05-05 13:16 39.71614 15.43982 40168 ft 446 kts 310°
2026-05-05 13:17 39.75812 15.38123 40161 ft 445 kts 310°
2026-05-05 13:17 39.80032 15.32222 40154 ft 445 kts 310°
2026-05-05 13:18 39.84246 15.26318 40110 ft 445 kts 310°
2026-05-05 13:18 39.88465 15.20394 40109 ft 445 kts 310°
2026-05-05 13:19 39.92670 15.14480 40119 ft 445 kts 310°
2026-05-05 13:19 39.96903 15.08569 40119 ft 446 kts 310°
2026-05-05 13:20 40.01111 15.02621 40118 ft 446 kts 310°
2026-05-05 13:20 40.05282 14.96700 40118 ft 446 kts 310°
2026-05-05 13:21 40.09484 14.90724 40117 ft 447 kts 310°
2026-05-05 13:21 40.13693 14.84738 40111 ft 447 kts 310°
2026-05-05 13:22 40.17966 14.78803 40111 ft 448 kts 311°
2026-05-05 13:22 40.22353 14.73013 40111 ft 448 kts 311°
2026-05-05 13:23 40.26719 14.67203 40111 ft 448 kts 311°
2026-05-05 13:23 40.31073 14.61365 40111 ft 448 kts 311°
2026-05-05 13:24 40.35421 14.55512 40111 ft 448 kts 311°
2026-05-05 13:24 40.39771 14.49659 40112 ft 448 kts 311°
2026-05-05 13:25 40.43416 14.44808 40112 ft 448 kts 311°
2026-05-05 13:25 40.46779 14.40299 40111 ft 448 kts 311°
2026-05-05 13:26 40.51131 14.34434 40112 ft 448 kts 311°
2026-05-05 13:26 40.55479 14.28554 40114 ft 448 kts 311°
2026-05-05 13:27 40.59660 14.22885 40121 ft 448 kts 311°
2026-05-05 13:27 40.63964 14.17036 40120 ft 448 kts 311°
2026-05-05 13:28 40.68295 14.11140 40121 ft 448 kts 310°
2026-05-05 13:28 40.72626 14.05230 40120 ft 448 kts 310°
2026-05-05 13:29 40.74795 14.02266 39979 ft 449 kts 310°
2026-05-05 13:29 40.76971 13.99290 39297 ft 451 kts 310°
2026-05-05 13:29 40.79148 13.96311 38486 ft 451 kts 310°
2026-05-05 13:29 40.81321 13.93331 37652 ft 451 kts 310°
2026-05-05 13:30 40.83497 13.90346 36808 ft 451 kts 310°
2026-05-05 13:30 40.85668 13.87365 35984 ft 450 kts 310°
2026-05-05 13:30 40.87829 13.84393 35188 ft 448 kts 310°
2026-05-05 13:30 40.89986 13.81426 34378 ft 446 kts 310°
2026-05-05 13:31 40.92134 13.78467 33549 ft 445 kts 310°
2026-05-05 13:31 40.94278 13.75510 32718 ft 444 kts 310°
2026-05-05 13:31 40.96412 13.72565 31883 ft 442 kts 310°
2026-05-05 13:31 40.98512 13.69664 31045 ft 441 kts 310°
2026-05-05 13:32 41.00624 13.66743 30344 ft 437 kts 309°
2026-05-05 13:32 41.02714 13.63850 29671 ft 433 kts 309°
2026-05-05 13:32 41.04788 13.60976 29018 ft 429 kts 309°
2026-05-05 13:32 41.06843 13.58125 28372 ft 425 kts 309°
2026-05-05 13:33 41.08877 13.55302 27739 ft 421 kts 309°
2026-05-05 13:33 41.10888 13.52506 27116 ft 418 kts 309°
2026-05-05 13:33 41.12886 13.49727 26498 ft 414 kts 309°
2026-05-05 13:33 41.14876 13.46957 25881 ft 411 kts 309°
2026-05-05 13:34 41.16857 13.44194 25266 ft 421 kts 309°
2026-05-05 13:34 41.18882 13.41370 24641 ft 420 kts 309°
2026-05-05 13:34 41.20889 13.38568 24020 ft 416 kts 309°
2026-05-05 13:34 41.22875 13.35793 23402 ft 413 kts 309°
2026-05-05 13:35 41.24609 13.33366 22865 ft 410 kts 309°
2026-05-05 13:35 41.26564 13.30630 22258 ft 407 kts 309°
2026-05-05 13:35 41.28481 13.27942 21661 ft 404 kts 309°
2026-05-05 13:35 41.30406 13.25243 21064 ft 401 kts 309°
2026-05-05 13:36 41.32318 13.22564 20473 ft 398 kts 310°
2026-05-05 13:36 41.34231 13.19912 19882 ft 395 kts 310°
2026-05-05 13:36 41.36125 13.17265 19292 ft 393 kts 309°
2026-05-05 13:36 41.37997 13.14631 18706 ft 390 kts 309°
2026-05-05 13:37 41.39856 13.12006 18125 ft 388 kts 309°
2026-05-05 13:37 41.41698 13.09400 17548 ft 386 kts 309°
2026-05-05 13:37 41.43529 13.06806 16976 ft 383 kts 309°
2026-05-05 13:37 41.45350 13.04224 16533 ft 377 kts 309°
2026-05-05 13:38 41.47108 13.01729 16477 ft 361 kts 309°
2026-05-05 13:38 41.48794 12.99336 16398 ft 347 kts 309°
2026-05-05 13:38 41.50412 12.97039 16314 ft 334 kts 309°
2026-05-05 13:38 41.51971 12.94828 16228 ft 318 kts 309°
2026-05-05 13:39 41.53457 12.92718 16145 ft 306 kts 309°
2026-05-05 13:39 41.54890 12.90713 15979 ft 300 kts 310°
2026-05-05 13:39 41.56414 12.88775 15730 ft 304 kts 312°
2026-05-05 13:39 41.57985 12.86885 15480 ft 303 kts 313°
2026-05-05 13:40 41.59546 12.85005 15231 ft 302 kts 313°
2026-05-05 13:40 41.61090 12.83104 14983 ft 300 kts 312°
2026-05-05 13:40 41.62612 12.81206 14736 ft 299 kts 312°
2026-05-05 13:40 41.64126 12.79314 14488 ft 297 kts 312°
2026-05-05 13:41 41.65637 12.77426 14241 ft 296 kts 312°
2026-05-05 13:41 41.67137 12.75544 13994 ft 295 kts 312°
2026-05-05 13:41 41.68636 12.73675 13749 ft 294 kts 312°
2026-05-05 13:41 41.70127 12.71814 13506 ft 293 kts 312°
2026-05-05 13:42 41.71616 12.69949 13263 ft 292 kts 312°
2026-05-05 13:42 41.72990 12.68222 13038 ft 291 kts 312°
2026-05-05 13:42 41.74458 12.66373 12799 ft 289 kts 312°
2026-05-05 13:42 41.75920 12.64532 12561 ft 287 kts 312°
2026-05-05 13:43 41.77377 12.62697 12324 ft 287 kts 312°
2026-05-05 13:43 41.78827 12.60871 12088 ft 285 kts 312°
2026-05-05 13:43 41.80267 12.59054 11853 ft 284 kts 311°
2026-05-05 13:43 41.81686 12.57223 11620 ft 283 kts 310°
2026-05-05 13:44 41.83069 12.55354 11387 ft 282 kts 310°
2026-05-05 13:44 41.84440 12.53476 11158 ft 283 kts 310°
2026-05-05 13:44 41.85824 12.51595 10930 ft 283 kts 310°
2026-05-05 13:44 41.87211 12.49719 10707 ft 283 kts 310°
2026-05-05 13:45 41.88617 12.47900 10464 ft 279 kts 316°
2026-05-05 13:45 41.90223 12.46509 10242 ft 278 kts 327°
2026-05-05 13:45 41.91983 12.45444 10015 ft 276 kts 332°
2026-05-05 13:45 41.93774 12.44534 9776 ft 275 kts 336°
2026-05-05 13:46 41.95585 12.43743 9545 ft 272 kts 338°
2026-05-05 13:46 41.97383 12.43012 9318 ft 268 kts 339°
2026-05-05 13:46 41.99167 12.42287 9089 ft 268 kts 339°
2026-05-05 13:46 42.00957 12.41551 8792 ft 269 kts 339°
2026-05-05 13:47 42.02745 12.40810 8492 ft 269 kts 339°
2026-05-05 13:47 42.04532 12.40066 8191 ft 268 kts 339°
2026-05-05 13:47 42.06313 12.39323 7893 ft 268 kts 339°
2026-05-05 13:47 42.08088 12.38583 7617 ft 266 kts 339°
2026-05-05 13:48 42.09855 12.37846 7341 ft 265 kts 339°
2026-05-05 13:48 42.11611 12.37111 7065 ft 264 kts 339°
2026-05-05 13:48 42.13364 12.36378 6790 ft 263 kts 339°
2026-05-05 13:48 42.15064 12.35538 6517 ft 257 kts 328°
2026-05-05 13:49 42.16434 12.34048 6260 ft 252 kts 309°
2026-05-05 13:49 42.17442 12.32154 5916 ft 243 kts 296°
2026-05-05 13:49 42.17878 12.30017 5551 ft 234 kts 270°
2026-05-05 13:49 42.17574 12.27862 5234 ft 237 kts 250°
2026-05-05 13:50 42.16876 12.25851 5030 ft 237 kts 242°
2026-05-05 13:50 42.16143 12.23779 5021 ft 255 kts 245°
2026-05-05 13:50 42.15497 12.21610 5001 ft 237 kts 246°
2026-05-05 13:50 42.14832 12.19750 4984 ft 207 kts 236°
2026-05-05 13:51 42.13913 12.18319 5018 ft 201 kts 221°
2026-05-05 13:51 42.12755 12.17233 4926 ft 205 kts 212°
2026-05-05 13:51 42.11518 12.16283 4758 ft 203 kts 209°
2026-05-05 13:51 42.10285 12.15385 4592 ft 201 kts 208°
2026-05-05 13:52 42.09066 12.14468 4427 ft 201 kts 208°
2026-05-05 13:52 42.07853 12.13543 4262 ft 199 kts 208°
2026-05-05 13:52 42.06638 12.12660 4094 ft 198 kts 201°
2026-05-05 13:52 42.05310 12.12446 4018 ft 197 kts 173°
2026-05-05 13:53 42.04015 12.12944 3983 ft 189 kts 164°
2026-05-05 13:53 42.02816 12.13540 4014 ft 177 kts 162°
2026-05-05 13:53 42.01714 12.14076 3979 ft 164 kts 162°
2026-05-05 13:53 42.00657 12.14561 3995 ft 158 kts 163°
2026-05-05 13:54 41.99615 12.15021 3734 ft 157 kts 163°
2026-05-05 13:54 41.98586 12.15466 3487 ft 153 kts 163°
2026-05-05 13:54 41.97633 12.15873 3287 ft 150 kts 163°
2026-05-05 13:54 41.96596 12.16313 3076 ft 148 kts 162°
2026-05-05 13:55 41.95622 12.16725 2878 ft 145 kts 162°
2026-05-05 13:55 41.94668 12.17128 2688 ft 144 kts 162°
2026-05-05 13:55 41.93712 12.17531 2496 ft 144 kts 162°
2026-05-05 13:55 41.92757 12.17933 2308 ft 144 kts 162°
2026-05-05 13:56 41.91796 12.18337 2111 ft 145 kts 162°
2026-05-05 13:56 41.90832 12.18742 1924 ft 146 kts 162°
2026-05-05 13:56 41.89861 12.19150 1728 ft 146 kts 162°
2026-05-05 13:56 41.88901 12.19554 1535 ft 146 kts 162°
2026-05-05 13:57 41.87927 12.19963 1336 ft 148 kts 162°
2026-05-05 13:57 41.86985 12.20358 1149 ft 136 kts 161°
2026-05-05 13:57 41.86106 12.20722 995 ft 127 kts 161°
2026-05-05 13:57 41.85259 12.21085 741 ft 128 kts 161°
2026-05-05 13:58 41.84430 12.21437 591 ft 122 kts 161°
2026-05-05 13:58 41.83602 12.21778 450 ft 125 kts 161°
2026-05-05 13:58 41.82777 12.22128 294 ft 125 kts 161°
2026-05-05 13:58 41.81950 12.22477 131 ft 124 kts 162°
2026-05-05 13:59 41.80466 12.23090 28 ft 81 kts 163°
2026-05-05 13:59 41.80079 12.23251 28 ft 37 kts 162°
2026-05-05 14:00 41.79679 12.23421 28 ft 26 kts 158°
2026-05-05 14:00 41.79575 12.23487 28 ft 24 kts 149°
2026-05-05 14:00 41.79417 12.23667 28 ft 19 kts 134°
2026-05-05 14:00 41.79347 12.23770 28 ft 13 kts 132°
2026-05-05 14:01 41.79310 12.23871 28 ft 12 kts 91°
2026-05-05 14:01 41.79328 12.23973 28 ft 11 kts 70°
2026-05-05 14:01 41.79385 12.24014 28 ft 10 kts 345°
2026-05-05 14:01 41.79449 12.23985 28 ft 7 kts 339°
2026-05-05 14:02 41.79486 12.23989 28 ft 5 kts 46°
2026-05-05 14:02 41.79503 12.24033 28 ft 5 kts 69°
2026-05-05 14:02 41.79513 12.24068 28 ft 3 kts 69°
2026-05-05 14:02 41.79518 12.24084 28 ft 0 kts 69°